Home > Weather > Inglewood > Past weeks

Flag for USA Past Weather in Inglewood, California, USA — Yesterday and Last 2 Weeks

Now
68 °F

Partly sunny.


Feels Like: 68 °F
Forecast: 65 / 82 °F
Wind: 7 mph from West

Location: Hawthorne Municipal Airport

Current Time: Jun 26, 2016 at 9:02:07 PM

Latest Report: Jun 26, 2016 at 7:53 PM


Visibility: 9 mi

Pressure: 29.89 "Hg

Humidity: 82%

Dew Point: 62 °F

Location of InglewoodLocation

Past Weather in Inglewood — Graph

°F

Inglewood Temperature Yesterday

Maximum temperature yesterday: 75 °F (at 11:53 AM)
Minimum temperature yesterday: 65 °F (at 2:53 AM)
Average temperature yesterday: 70 °F

High & Low Weather Summary for the Past Weeks

 TemperatureHumidityPressure
High94 °F (Jun 20, 9:53 AM)94% (Jun 22, 1:53 AM)30.12 "Hg (Jun 22, 1:53 AM)
Low60 °F (Jun 14, 1:53 AM)20% (Jun 20, 9:53 AM)29.80 "Hg (Jun 20, 5:53 PM)
Average70 °F66%29.95 "Hg
* Reported Jun 11 7:53 PM — Jun 26 7:53 PM, Inglewood, Weather by CustomWeather, © 2016

Note: Actual official high and low records may vary slightly from our data, if they occured in-between our weather recording intervals... More about our weather records

Advertising

Inglewood Weather History for the Previous 24 Hours

Scroll right to see more
 ConditionsComfort  
Time TempWeatherWind HumidityBarometerVisibility
7:53 PM
Sun, Jun 26
68 °FPartly sunny.7 mph82%29.89 "Hg9 mi
6:53 PM69 °FPassing clouds.10 mph79%29.88 "Hg7 mi
5:53 PM72 °FSunny.9 mph71%29.87 "Hg10 mi
4:53 PM73 °FSunny.14 mph69%29.87 "Hg10 mi
3:53 PM74 °FSunny.10 mph67%29.87 "Hg10 mi
2:53 PM74 °FSunny.13 mph67%29.88 "Hg10 mi
1:53 PM76 °FSunny.13 mph62%29.89 "Hg9 mi
12:53 PM74 °FSunny.12 mph67%29.90 "Hg7 mi
11:53 AM76 °FSunny.9 mph62%29.90 "Hg8 mi
10:53 AM73 °FSunny.7 mph69%29.90 "Hg7 mi
9:53 AM74 °FSunny.8 mph67%29.88 "Hg10 mi
8:53 AM72 °FSunny.No wind71%29.88 "Hg8 mi
7:53 AM69 °FSunny.No wind76%29.88 "Hg7 mi
6:53 AM66 °FSunny.No wind84%29.88 "Hg8 mi
5:53 AM66 °FClear.No wind84%29.86 "Hg7 mi
4:53 AM66 °FClear.No wind84%29.85 "Hg10 mi
3:53 AM67 °FClear.No wind81%29.86 "Hg10 mi
2:53 AM67 °FClear.No wind81%29.86 "Hg10 mi
1:53 AM67 °FPassing clouds.No wind81%29.86 "Hg10 mi
12:53 AM68 °FClear.No wind78%29.87 "Hg10 mi
11:53 PM
Sat, Jun 25
68 °FPassing clouds.No wind78%29.88 "Hg10 mi
10:53 PM68 °FClear.No wind78%29.87 "Hg10 mi
9:53 PM68 °FClear.No wind78%29.86 "Hg10 mi
Weather by CustomWeather, © 2016

See weather overviewHow to use our weather pages